Location: Lafig�re
(44.4503°N, 4.0357°E)
Time: 00:11:55
(UTC+00:00)

deb Explorer IX - Pass Details

Date: 27 January 2021
Orbit: 537 x 1102 km, 38.8° (Epoch: 03 March)

Event Time Altitude Azimuth Distance (km) Brightness Sun altitude
Rises 20:27:43 0° 272° (W) 3,522 ? -39.4°
Reaches altitude 10° 20:30:48 10° 262° (W) 2,475 ? -39.9°
Enters shadow 20:32:34 17° 250° (WSW) 1,945 ? -40.2°
